Wind_Speed
28 27 28 29 29 29 30 30 31 32 33 34 34 35 36 37 38 39 39 38 38 37 36 34 34 33 31 30 28 28 28 27 27 26 25 25 25 25 24 23 22 21 20
26 26 26 26 26 27 27 27 28 28 29 30 30 32 33 34 35 36 37 38 38 37 37 36 35 34 34 32 30 30 29 28 28 27 27 26 26 27 25 24 24 24 23
24 24 24 24 25 25 25 25 25 25 25 26 26 28 29 30 31 32 34 35 36 36 36 36 36 35 34 33 32 32 32 30 29 29 28 28 27 28 27 26 26 26 25
23 23 23 23 23 23 22 22 22 22 21 22 23 24 25 26 27 28 30 32 33 34 35 36 36 36 35 35 34 33 33 32 31 30 30 30 30 30 30 29 27 27 26
22 22 22 21 21 20 19 19 19 19 18 18 19 20 21 22 24 25 27 29 31 32 34 35 35 36 36 36 35 34 34 34 33 32 31 31 30 30 32 31 30 29 27
21 21 21 21 20 19 19 18 18 17 16 16 16 16 16 18 19 21 22 25 27 29 31 33 34 35 36 36 36 36 36 35 34 33 33 33 31 30 32 33 32 31 29
20 20 21 21 20 19 19 18 17 16 16 15 14 14 13 13 14 16 18 20 22 25 28 30 32 33 34 35 36 37 38 37 36 35 34 34 33 33 32 32 33 34 32
19 20 20 20 20 19 19 18 17 17 16 15 14 13 12 11 11 12 13 16 18 20 22 25 29 31 33 35 35 36 37 38 37 36 36 35 34 34 33 33 33 34 34
19 20 20 21 20 20 19 19 18 18 16 15 14 13 12 11 9 8 8 10 12 16 18 21 24 28 30 33 34 35 35 36 36 35 35 35 34 34 33 33 33 34 34
20 20 21 21 21 20 20 20 19 19 18 17 16 15 13 12 10 8 6 6 8 10 13 17 20 23 25 28 32 33 34 34 35 36 36 35 34 33 32 32 32 33 34
21 21 22 22 22 21 20 20 20 20 19 18 17 16 15 13 11 10 7 5 5 7 9 12 15 18 21 24 27 28 29 31 33 33 33 32 31 31 31 31 31 32 33
21 22 22 22 23 22 22 21 21 20 20 19 18 17 16 15 13 11 9 7 6 6 7 8 11 14 17 20 23 25 27 28 29 30 30 30 29 29 30 30 30 30 31
21 22 22 23 23 23 23 22 22 21 21 20 20 19 17 16 15 13 11 9 7 6 5 5 6 9 12 15 18 20 23 24 25 26 27 28 28 28 28 29 29 29 30
20 21 21 22 23 23 23 23 23 23 22 21 20 20 19 17 16 14 13 12 10 7 5 4 4 5 7 9 13 15 18 21 22 23 24 25 26 27 27 27 27 27 28
19 20 21 21 22 23 24 23 23 23 23 22 21 20 19 18 17 16 15 13 11 9 6 5 3 3 4 6 8 12 14 16 18 19 21 22 23 24 25 25 24 24 25
19 20 21 21 22 22 23 23 23 23 23 23 22 21 20 19 18 17 16 14 13 10 8 6 4 2 3 4 6 9 11 14 15 16 18 19 20 21 21 20 20 20 21
18 19 20 21 21 22 23 23 23 23 23 23 23 22 21 21 19 18 17 16 14 12 10 8 6 4 3 2 3 7 9 11 12 14 16 17 17 17 17 18 18 18 19
18 19 19 20 21 21 22 23 23 23 24 24 24 24 23 22 20 19 18 17 16 14 12 10 8 6 4 2 0 3 5 8 9 11 13 14 15 15 15 16 15 16 17
17 18 18 19 20 20 21 22 23 23 23 24 24 24 24 23 22 21 20 19 18 16 14 12 11 9 7 5 3 2 2 5 7 8 10 11 12 12 13 14 14 14 15
15 16 17 18 18 19 20 21 21 22 22 23 23 24 24 24 23 22 21 21 20 19 17 15 14 12 10 8 5 3 3 4 5 7 8 10 10 10 11 12 12 12 13
14 15 16 17 18 18 19 19 20 21 21 22 22 23 23 23 23 22 21 21 20 19 19 18 16 15 13 11 9 7 6 5 5 6 7 9 9 9 9 10 10 10 11
14 14 15 15 16 17 17 18 19 20 20 21 21 22 22 22 22 22 21 21 21 20 19 18 17 16 15 13 11 10 8 8 7 8 8 9 8 8 8 9 9 9 9
13 13 14 14 15 16 16 17 17 18 19 19 20 20 21 21 21 21 21 21 20 20 20 19 18 16 15 14 13 11 10 9 9 9 10 10 10 9 9 9 9 9 9
12 13 13 13 14 15 15 16 16 17 17 18 18 19 19 20 20 20 21 20 20 20 20 19 18 17 16 15 15 13 12 11 10 10 10 10 10 9 8 8 8 9 9
13 13 13 13 13 14 14 14 15 15 15 16 16 17 17 17 18 18 19 19 19 18 18 19 18 18 16 15 15 14 13 12 12 11 11 11 10 10 10 9 8 8 8
14 14 13 13 13 13 13 13 13 13 14 14 14 14 15 15 15 15 16 16 17 17 17 17 17 17 16 15 14 14 13 13 12 12 11 10 10 9 9 8 8 8 8
Wind_Direction
307 305 303 301 298 295 292 288 285 281 277 275 272 269 266 263 261 258 256 254 251 250 250 250 249 248 245 245 247 246 243 244 246 245 245 245 243 242 241 240 242 244 244
312 312 311 309 305 302 298 294 290 286 281 277 274 271 267 264 262 258 254 252 250 248 247 246 246 246 244 242 244 242 241 242 244 244 245 245 242 241 239 240 241 242 242
322 321 319 316 313 309 304 301 297 293 288 283 278 274 269 266 263 259 255 252 249 246 245 244 243 242 242 241 241 241 241 242 242 243 244 242 240 240 239 239 240 240 242
333 331 328 324 321 317 312 309 307 303 297 292 286 280 274 268 264 259 254 250 248 245 243 242 241 240 238 238 237 237 238 239 240 241 242 242 241 241 239 239 240 240 240
341 340 338 335 332 329 325 321 318 316 311 305 297 289 281 273 266 260 255 251 248 246 244 242 240 238 237 235 234 234 235 236 236 237 237 238 239 240 238 238 238 238 239
349 350 350 348 346 344 341 338 334 331 327 320 313 303 292 281 271 262 257 252 249 246 243 241 239 237 235 233 232 232 232 233 234 234 235 236 237 239 238 238 236 236 238
356 357 357 357 357 356 355 352 348 344 341 337 330 320 308 295 281 270 261 254 250 246 244 241 239 236 234 232 230 230 231 231 231 232 234 236 237 238 239 238 236 236 237
2 3 4 5 5 4 2 1 358 355 352 348 344 338 329 314 298 280 267 259 253 248 246 243 239 237 234 232 232 231 231 230 229 231 233 235 237 239 238 236 236 235 235
8 9 9 8 8 9 9 7 6 5 3 0 359 354 352 346 331 310 287 272 260 251 247 243 240 237 234 233 232 231 231 229 229 229 231 233 234 238 237 236 236 236 236
16 15 14 12 11 11 12 13 13 12 10 9 7 6 1 357 352 340 317 290 271 258 250 244 240 235 233 233 231 232 232 231 230 231 232 232 234 235 235 235 236 234 234
21 21 19 17 17 17 17 16 16 16 16 15 14 14 12 7 2 356 343 319 294 273 263 251 240 235 234 233 232 231 230 229 229 229 231 233 232 232 232 232 233 233 233
23 21 21 21 22 21 21 19 18 18 19 18 18 17 16 14 9 6 1 348 327 302 277 263 248 239 236 234 233 231 230 228 228 229 231 234 233 233 232 232 234 234 234
21 21 21 22 22 22 22 22 22 21 21 21 21 20 19 17 16 14 13 8 355 337 312 281 262 248 237 235 231 232 231 228 228 230 230 231 233 232 233 233 233 234 234
20 21 22 22 22 22 23 23 23 22 22 21 21 21 20 19 19 17 16 16 12 5 352 327 289 267 254 244 236 234 233 230 229 227 227 229 229 229 231 233 234 233 234
20 21 22 22 21 22 22 23 22 22 22 22 21 20 20 20 20 18 15 15 13 12 9 1 338 288 259 244 236 229 229 228 228 227 225 229 230 228 229 231 231 231 232
22 22 22 22 21 21 22 23 24 24 24 25 24 24 23 22 21 19 17 16 15 15 15 13 2 330 278 261 238 228 228 226 227 226 225 228 230 230 230 230 230 231 233
22 22 22 22 23 23 23 24 25 26 26 26 26 26 25 24 23 22 21 22 22 23 24 23 22 16 354 307 237 222 223 224 224 223 223 224 226 227 230 232 233 233 231
20 21 23 24 24 24 25 26 26 27 28 28 28 28 29 28 28 28 28 28 29 30 30 27 27 25 23 16 223 201 211 211 208 211 214 214 216 221 224 224 228 230 228
18 20 22 23 23 24 24 25 26 27 28 28 29 30 30 30 31 32 33 33 34 35 35 36 36 37 38 42 61 131 166 189 195 201 201 205 212 214 213 215 220 224 226
13 16 18 20 21 22 23 24 25 26 27 27 29 30 31 32 33 34 35 36 38 39 39 39 40 41 44 48 57 93 119 151 173 182 190 195 199 201 206 205 210 215 218
9 13 15 17 19 20 22 23 24 24 24 25 27 28 30 31 33 34 36 37 39 40 41 42 44 45 49 55 65 79 93 115 137 155 163 171 179 185 189 192 197 200 203
4 7 9 10 12 15 17 18 20 21 22 23 25 27 28 30 32 33 35 37 38 40 40 43 44 47 50 57 66 78 86 99 114 127 138 146 153 158 166 171 175 176 178
355 359 1 2 4 6 8 11 14 16 18 20 23 25 27 30 32 33 35 38 39 41 42 43 45 47 50 54 63 74 82 88 96 106 118 129 135 137 144 150 158 165 168
343 346 350 353 356 358 1 3 6 9 11 15 19 21 24 28 32 33 35 37 40 42 43 44 46 48 52 57 63 71 77 83 88 97 109 118 127 129 131 138 146 150 156
328 333 336 340 344 348 352 355 358 1 4 7 12 16 19 23 27 31 33 36 38 41 42 44 46 49 54 59 65 68 73 79 84 92 103 109 114 121 123 128 136 143 148
313 317 321 326 330 334 338 343 347 351 355 358 2 6 11 15 20 24 28 33 36 39 41 44 46 50 54 60 65 68 72 77 84 91 98 103 108 116 122 126 131 136 142
Height
5849 5844 5841 5837 5833 5830 5826 5823 5821 5819 5817 5816 5815 5815 5815 5816 5818 5820 5822 5824 5827 5831 5834 5837 5840 5842 5845 5848 5851 5853 5855 5858 5860 5862 5865 5867 5869 5872 5874 5876 5877 5879 5881
5843 5839 5835 5830 5826 5822 5819 5816 5813 5810 5808 5807 5805 5805 5805 5806 5807 5808 5811 5813 5816 5819 5823 5827 5830 5833 5836 5840 5842 5845 5848 5850 5853 5856 5858 5860 5863 5865 5868 5870 5872 5874 5876
5838 5834 5829 5825 5820 5816 5812 5809 5806 5803 5800 5798 5797 5796 5796 5796 5797 5798 5800 5802 5805 5809 5813 5816 5820 5823 5827 5830 5833 5837 5840 5843 5846 5849 5852 5854 5857 5859 5862 5864 5867 5869 5871
5834 5830 5825 5820 5816 5811 5807 5804 5800 5797 5794 5792 5790 5788 5787 5787 5787 5788 5790 5792 5795 5799 5802 5806 5809 5813 5817 5821 5824 5828 5831 5835 5838 5841 5844 5847 5850 5853 5856 5858 5861 5863 5865
5832 5827 5822 5817 5812 5808 5804 5800 5796 5792 5789 5786 5784 5782 5780 5780 5779 5780 5781 5783 5786 5789 5792 5796 5799 5803 5807 5811 5815 5818 5822 5826 5830 5833 5836 5839 5842 5845 5848 5851 5854 5857 5859
5830 5825 5820 5815 5810 5805 5801 5797 5792 5789 5785 5782 5779 5776 5775 5773 5773 5772 5773 5775 5777 5779 5782 5786 5789 5793 5797 5801 5805 5809 5813 5817 5821 5824 5827 5831 5834 5837 5840 5843 5846 5849 5852
5830 5825 5820 5814 5809 5804 5800 5795 5791 5787 5783 5779 5776 5773 5770 5769 5767 5767 5767 5768 5769 5771 5773 5776 5780 5783 5787 5791 5795 5799 5804 5808 5812 5816 5819 5823 5826 5829 5832 5835 5838 5842 5845
5830 5825 5820 5815 5809 5804 5799 5795 5790 5786 5782 5778 5774 5771 5768 5765 5763 5762 5762 5762 5763 5764 5766 5768 5771 5774 5778 5782 5786 5790 5794 5798 5802 5806 5810 5814 5818 5821 5824 5827 5831 5834 5837
5830 5825 5820 5815 5810 5805 5800 5795 5790 5786 5782 5777 5773 5770 5766 5764 5761 5760 5759 5758 5758 5759 5760 5761 5763 5766 5770 5774 5778 5782 5785 5790 5794 5798 5802 5806 5809 5813 5816 5819 5822 5826 5829
5831 5826 5821 5816 5811 5806 5801 5796 5791 5787 5782 5778 5774 5770 5766 5763 5760 5758 5757 5756 5755 5755 5755 5756 5757 5760 5762 5766 5769 5773 5777 5781 5785 5789 5793 5797 5800 5804 5807 5810 5813 5817 5821
5833 5828 5823 5818 5812 5807 5803 5798 5793 5788 5783 5779 5775 5770 5767 5763 5760 5758 5756 5754 5753 5752 5752 5752 5753 5754 5757 5759 5762 5766 5770 5774 5778 5781 5785 5789 5793 5796 5799 5803 5806 5809 5813
5835 5830 5825 5820 5815 5809 5804 5800 5795 5790 5785 5780 5776 5772 5768 5764 5761 5758 5755 5753 5751 5750 5750 5750 5750 5751 5752 5755 5757 5760 5764 5767 5770 5774 5778 5781 5785 5789 5792 5795 5798 5801 5805
5837 5832 5827 5822 5817 5812 5807 5802 5797 5792 5787 5782 5778 5774 5769 5765 5762 5758 5755 5753 5751 5749 5748 5747 5747 5748 5749 5750 5752 5755 5757 5760 5764 5768 5772 5775 5779 5782 5786 5789 5792 5795 5798
5839 5834 5829 5825 5820 5815 5809 5804 5799 5794 5789 5785 5780 5776 5771 5767 5763 5759 5756 5753 5751 5749 5747 5746 5746 5746 5746 5747 5748 5750 5752 5755 5758 5762 5766 5769 5772 5776 5779 5782 5785 5788 5791
5840 5836 5831 5827 5822 5817 5812 5807 5802 5797 5792 5787 5782 5778 5773 5769 5765 5761 5757 5754 5751 5749 5747 5746 5745 5745 5745 5745 5745 5747 5749 5751 5754 5757 5760 5763 5766 5770 5773 5776 5779 5782 5785
5842 5838 5833 5829 5824 5819 5815 5810 5804 5800 5795 5790 5785 5780 5776 5771 5767 5763 5759 5755 5752 5749 5747 5745 5744 5744 5743 5743 5743 5744 5746 5748 5750 5753 5756 5759 5762 5765 5768 5771 5774 5777 5780
5844 5839 5835 5831 5826 5822 5817 5812 5807 5802 5798 5793 5788 5783 5778 5773 5769 5765 5761 5757 5753 5750 5747 5746 5744 5743 5743 5742 5741 5742 5744 5745 5747 5749 5752 5755 5758 5760 5763 5766 5769 5772 5775
5845 5841 5837 5833 5829 5824 5820 5815 5810 5806 5801 5796 5791 5786 5781 5776 5772 5767 5763 5759 5755 5752 5749 5747 5745 5744 5742 5741 5741 5741 5742 5743 5745 5746 5749 5752 5755 5757 5760 5763 5766 5768 5771
5847 5843 5839 5835 5831 5827 5822 5818 5813 5809 5804 5799 5795 5790 5785 5780 5775 5770 5766 5762 5758 5755 5751 5748 5746 5744 5743 5741 5741 5741 5741 5742 5743 5745 5748 5750 5753 5755 5758 5760 5763 5765 5767
5848 5844 5841 5837 5833 5829 5825 5821 5816 5812 5807 5803 5798 5793 5788 5783 5779 5774 5770 5766 5762 5758 5754 5751 5748 5746 5744 5742 5741 5741 5741 5742 5743 5744 5746 5749 5751 5753 5756 5758 5760 5762 5764
5849 5845 5842 5838 5835 5831 5827 5823 5819 5815 5810 5806 5801 5797 5792 5787 5783 5778 5774 5770 5766 5762 5758 5755 5751 5749 5746 5744 5743 5742 5742 5743 5743 5744 5746 5748 5750 5752 5754 5756 5758 5760 5762
5849 5846 5843 5839 5836 5832 5829 5825 5821 5817 5813 5809 5805 5800 5795 5791 5787 5782 5778 5774 5770 5766 5762 5759 5755 5752 5750 5747 5746 5745 5744 5744 5745 5746 5747 5748 5750 5752 5754 5756 5757 5759 5761
5849 5846 5843 5840 5837 5834 5830 5827 5823 5819 5816 5812 5807 5803 5799 5795 5790 5786 5782 5778 5774 5770 5766 5763 5759 5756 5754 5751 5750 5748 5748 5747 5747 5748 5749 5750 5752 5754 5755 5756 5758 5759 5761
5849 5846 5843 5840 5837 5834 5831 5828 5825 5821 5817 5814 5810 5806 5802 5798 5794 5790 5786 5782 5778 5775 5771 5768 5764 5761 5758 5756 5754 5753 5752 5751 5751 5751 5752 5753 5754 5755 5756 5758 5759 5761 5762
5847 5845 5842 5840 5837 5834 5831 5828 5825 5822 5819 5815 5812 5808 5805 5801 5797 5794 5790 5787 5783 5779 5776 5773 5769 5766 5763 5761 5759 5757 5756 5755 5755 5755 5755 5756 5757 5758 5759 5760 5761 5762 5764
5845 5843 5841 5839 5836 5833 5831 5828 5825 5822 5820 5816 5813 5810 5807 5804 5800 5797 5794 5790 5787 5784 5780 5777 5774 5771 5768 5766 5764 5763 5761 5760 5760 5760 5760 5760 5760 5761 5762 5762 5763 5764 5765